This demonstration page uses our WeatherBlox Daily Observations layout. Learn more.

Left ArrowRight Arrow

39.12711, -84.51439

Hourly Observations for June 19, 2016

Temp ( °F °C ) Dew Point ( °F °C ) Humidity (%) Winds ( mph kmh ) Pressure ( in mb ) Visibility ( mi km ) Precip ( " mm )
12:53 am 00:53 Clear 63 17.2 60 15.6 90 90 N N/A 30.25 1024 10 16 N/A
1:53 am 01:53 Clear 63 17.2 61 16.1 93 93 N N/A 30.25 1025 10 16 N/A
2:53 am 02:53 Clear 62 16.7 61 16.1 96 96 N N/A 30.26 1025 10 16 N/A
3:53 am 03:53 Clear 61 16.1 60 15.6 97 97 N N/A 30.26 1025 10 16 N/A
4:53 am 04:53 Clear 61 16.1 60 15.6 97 97 N N/A 30.26 1025 9 14 N/A
5:53 am 05:53 Clear 59 15 59 15 100 100 N N/A 30.27 1025 7 11 N/A
6:53 am 06:53 Sunny 60 15.6 60 15.6 100 100 N N/A 30.28 1026 10 16 N/A
7:53 am 07:53 Sunny 67 19.4 63 17.2 87 87 N N/A 30.30 1026 10 16 N/A
8:53 am 08:53 Sunny 72 22.2 61 16.1 68 68 S 8 13 30.31 1026 10 16 N/A
9:53 am 09:53 Sunny 74 23.3 63 17.2 69 69 S 7 11 30.32 1027 10 16 N/A
10:53 am 10:53 Mostly Sunny 78 25.6 66 18.9 67 67 S 8 13 30.30 1026 10 16 N/A
11:53 am 11:53 Sunny 81 27.2 68 20 65 65 S 9 15 30.30 1026 10 16 N/A
12:53 pm 12:53 Sunny 83 28.3 68 20 61 61 SW 12 19 30.28 1025 10 16 N/A
1:53 pm 13:53 Partly Cloudy 85 29.4 71 21.7 63 63 SSW 8 13 30.26 1025 10 16 N/A
2:53 pm 14:53 Mostly Cloudy 83 28.3 69 20.6 63 63 SSW 10 17 30.24 1024 10 16 N/A
3:53 pm 15:53 Mostly Cloudy 84 28.9 69 20.6 61 61 S 7 11 30.23 1024 10 16 N/A
4:53 pm 16:53 Mostly Cloudy 86 30 71 21.7 61 61 S 13 20 30.21 1023 10 16 N/A
5:53 pm 17:53 Mostly Sunny 85 29.4 70 21.1 61 61 S 12 19 30.21 1023 10 16 N/A
6:53 pm 18:53 Partly Cloudy 84 28.9 70 21.1 63 63 SSW 7 11 30.20 1023 10 16 N/A
7:53 pm 19:53 Mostly Cloudy 83 28.3 69 20.6 63 63 SSW 10 17 30.20 1023 10 16 N/A
8:53 pm 20:53 Mostly Cloudy 78 25.6 70 21.1 76 76 S 6 9 30.21 1023 10 16 N/A
9:53 pm 21:53 Clear 73 22.8 70 21.1 90 90 SSW 7 11 30.22 1023 10 16 N/A
10:53 pm 22:53 Clear 73 22.8 69 20.6 87 87 N N/A 30.23 1024 10 16 N/A
11:53 pm 23:53 Clear 72 22.2 69 20.6 91 91 S 3 6 30.22 1023 10 16 N/A

Powered by AerisWeather